Lapse_Rate
5.9 5.8 5.7 5.8 5.8 5.8 5.8 5.9 5.7 5.8 6.0 6.1 6.0 6.2 6.2 6.2 6.1 6.1 6.0 6.0 6.0 6.1 6.0 5.8 6.0 6.0 5.9 5.8 5.8 5.7 5.6 5.4 5.4 5.2 5.0 5.0 5.0 5.0 5.0 5.1 5.2 5.1 5.1
5.9 5.9 5.8 5.9 5.9 5.7 5.7 5.8 5.7 5.8 5.9 6.0 6.1 6.2 6.2 6.2 6.1 6.0 5.9 6.1 6.0 6.1 6.1 6.1 6.0 5.9 5.8 5.7 5.7 5.7 5.6 5.4 5.3 5.1 5.0 5.3 5.3 5.3 5.3 5.1 5.1 5.2 5.2
5.9 5.9 5.9 5.9 5.9 5.6 5.6 5.8 5.8 5.8 5.7 5.8 5.9 6.1 6.0 6.0 6.2 6.1 6.0 6.0 6.0 5.9 6.0 6.0 6.0 5.9 5.9 5.9 6.1 6.1 6.0 5.8 5.7 5.7 5.7 5.6 5.4 5.3 5.4 5.5 5.4 5.5 5.5
5.9 5.9 5.9 5.8 5.8 5.7 5.6 5.7 5.7 5.6 5.6 5.5 5.5 5.7 5.8 5.7 5.8 6.0 6.0 5.8 5.9 6.0 5.8 5.9 5.9 6.0 6.0 6.1 6.1 6.1 6.1 6.0 6.0 5.9 5.8 5.7 5.5 5.5 5.5 5.6 5.5 5.6 5.7
5.8 5.8 5.9 5.8 5.8 5.8 5.6 5.5 5.5 5.6 5.5 5.5 5.5 5.6 5.7 5.7 5.8 5.8 5.9 6.0 6.0 6.1 5.9 6.0 6.0 6.2 6.1 6.2 6.1 6.2 6.0 5.9 5.9 5.9 5.9 6.0 6.0 5.7 5.6 5.7 5.7 5.7 5.8
5.8 5.7 5.7 5.8 5.8 5.8 5.6 5.5 5.6 5.6 5.6 5.5 5.6 5.5 5.6 5.7 5.9 5.9 5.8 6.0 6.1 6.2 6.0 5.9 6.0 6.1 6.0 6.0 6.0 5.9 6.0 5.9 5.9 6.0 6.1 6.1 6.0 6.0 6.0 6.0 6.0 5.9 5.9
5.9 5.6 5.5 5.7 5.7 5.7 5.7 5.6 5.7 5.7 5.7 5.6 5.5 5.5 5.4 5.5 5.7 5.8 5.9 5.8 5.9 6.1 6.1 6.0 5.9 5.9 5.9 5.8 5.9 5.9 5.9 6.1 6.0 6.0 6.0 6.1 6.3 6.3 6.2 6.3 6.2 6.1 6.1
5.8 5.7 5.6 5.7 5.7 5.7 5.7 5.8 5.8 5.6 5.7 5.7 5.6 5.4 5.3 5.4 5.5 5.6 5.7 5.9 5.9 5.9 5.8 5.9 5.9 5.8 5.7 5.8 5.8 5.7 5.9 5.9 6.0 6.0 6.1 6.2 6.1 6.1 6.2 6.4 6.3 6.3 6.2
5.8 5.8 5.7 5.6 5.7 5.6 5.6 5.7 5.7 5.6 5.6 5.6 5.5 5.4 5.3 5.3 5.4 5.5 5.6 5.7 5.8 5.8 5.8 5.8 5.9 5.9 5.8 5.8 5.8 5.8 5.8 5.8 5.9 6.0 6.1 6.0 6.1 6.1 6.1 6.2 6.2 6.2 6.2
5.9 5.9 5.8 5.7 5.8 5.7 5.7 5.7 5.6 5.6 5.5 5.5 5.2 5.2 5.3 5.4 5.4 5.3 5.4 5.5 5.5 5.6 5.7 5.8 5.8 5.8 5.7 5.8 5.8 5.8 5.8 5.8 5.7 5.7 6.0 6.1 6.1 6.2 6.2 6.1 6.2 6.3 6.3
6.1 6.0 5.8 5.9 5.9 5.8 5.7 5.6 5.5 5.5 5.4 5.0 5.4 5.2 4.9 5.4 5.4 5.3 5.4 5.5 5.6 5.4 5.5 5.5 5.6 5.6 5.7 5.6 5.6 5.8 5.7 5.7 5.7 5.7 5.7 5.8 5.9 6.1 6.0 6.1 6.0 6.1 6.2
6.2 6.2 6.0 5.9 5.9 5.9 5.6 5.6 5.5 5.4 5.2 5.3 5.0 4.8 4.8 5.1 5.2 5.3 5.4 5.5 5.6 5.6 5.5 5.4 5.5 5.6 5.5 5.6 5.6 5.6 5.7 5.5 5.5 5.5 5.5 5.7 5.7 5.7 5.9 5.9 5.9 6.0 6.0
6.1 6.2 6.1 6.0 6.1 6.0 5.8 5.5 5.5 5.5 5.4 5.2 4.7 5.0 4.9 5.0 5.2 5.2 5.4 5.5 5.5 5.4 5.4 5.4 5.4 5.4 5.5 5.4 5.3 5.4 5.6 5.5 5.4 5.4 5.4 5.5 5.6 5.7 5.8 5.7 5.7 5.9 6.1
6.0 6.0 6.1 5.9 6.0 6.0 5.7 5.7 5.7 5.6 5.3 5.1 5.2 5.2 5.0 5.3 5.3 5.2 5.2 5.2 5.2 5.3 5.1 5.1 5.4 5.3 5.4 5.6 5.5 5.4 5.4 5.4 5.4 5.4 5.4 5.5 5.5 5.5 5.6 5.6 5.7 5.7 5.9
6.0 5.8 6.0 6.0 5.9 5.9 5.7 5.7 5.6 5.5 5.4 5.5 5.2 5.0 5.2 5.1 5.2 5.2 5.0 5.0 5.2 5.3 5.4 5.3 5.5 5.4 5.4 5.6 5.6 5.6 5.5 5.5 5.6 5.6 5.5 5.6 5.7 5.7 5.6 5.7 5.8 5.8 5.8
5.7 5.7 5.8 5.9 5.9 5.8 5.7 5.6 5.6 5.6 5.3 5.3 5.3 5.0 5.2 5.2 5.2 5.2 5.2 5.1 5.1 5.3 5.4 5.5 5.4 5.4 5.6 5.6 5.6 5.6 5.6 5.7 5.7 5.7 5.6 5.7 5.7 5.6 5.5 5.6 5.8 5.8 5.7
5.9 5.6 5.6 5.8 5.9 5.7 5.8 5.6 5.7 5.7 5.3 5.5 5.6 5.3 5.4 5.3 5.3 5.2 5.2 5.1 5.3 5.4 5.5 5.5 5.5 5.6 5.7 5.7 5.7 5.7 5.7 5.7 5.6 5.5 5.5 5.3 5.4 5.5 5.7 5.7 5.8 5.9 5.9
5.7 5.6 5.6 5.7 6.0 6.0 6.0 5.5 5.4 5.6 5.5 5.4 5.6 5.4 5.4 5.2 5.3 5.3 5.4 5.2 5.3 5.3 5.6 5.8 5.6 5.6 5.7 5.6 5.6 5.6 5.7 5.8 5.8 5.8 5.8 5.7 5.7 5.6 5.6 5.8 5.9 6.0 6.0
5.6 5.4 5.8 5.9 6.1 6.0 6.2 6.1 5.8 5.6 5.5 5.5 5.6 5.6 5.7 5.7 5.6 5.7 5.5 5.5 5.2 5.3 5.5 5.6 5.8 5.7 5.7 5.6 5.7 5.8 5.7 5.7 5.8 5.8 5.9 5.8 5.9 5.8 5.7 5.9 5.8 6.0 6.0
6.2 6.0 6.0 6.5 6.3 6.4 6.3 6.2 6.0 5.7 5.5 5.4 5.4 5.5 5.7 5.7 5.8 5.7 5.9 5.8 5.6 5.4 5.5 5.6 5.6 5.8 5.7 5.6 5.8 5.7 5.7 5.8 5.6 5.6 5.6 5.7 5.6 5.8 5.9 5.9 5.8 5.8 5.8
6.3 6.2 6.1 6.2 6.4 6.2 6.3 6.2 6.1 5.9 5.6 5.5 5.4 5.3 5.5 5.6 5.0 5.3 5.6 5.9 5.9 5.9 5.8 5.6 5.6 5.7 5.6 5.7 5.8 5.7 5.9 5.8 5.8 5.8 5.6 5.7 5.6 5.7 5.8 6.0 6.1 6.0 5.9
6.6 6.3 6.1 6.1 6.6 6.2 6.1 6.4 6.4 6.3 5.9 5.6 5.5 5.3 5.0 5.1 5.0 5.2 5.3 5.4 5.6 5.9 6.1 6.0 5.8 5.8 5.6 5.6 5.6 5.7 5.7 5.7 5.6 5.7 5.8 5.6 5.6 5.7 5.5 5.5 5.8 5.9 6.1
7.0 6.7 6.8 6.7 6.8 6.6 6.2 6.3 6.4 6.4 6.3 6.0 6.0 5.8 5.8 5.5 5.3 5.2 5.1 5.3 5.6 5.6 5.9 6.0 6.0 6.0 6.0 5.8 5.8 5.8 5.8 5.7 5.6 5.5 5.7 5.8 5.7 5.7 5.7 5.6 5.6 5.8 5.9
7.2 7.0 7.0 7.3 7.3 7.0 6.8 6.7 6.7 6.7 6.6 6.4 6.3 6.2 5.9 6.0 5.9 5.7 5.5 5.3 5.4 5.6 5.8 5.7 5.7 5.9 5.9 6.0 6.2 6.2 6.1 6.1 6.0 6.0 5.7 5.7 5.8 5.8 6.1 5.8 5.7 5.6 5.7
7.3 7.2 7.5 7.4 7.1 7.4 7.1 6.9 7.0 6.6 6.4 6.4 6.4 6.4 6.2 6.2 6.3 6.2 6.1 6.0 6.0 5.8 5.8 5.7 5.8 5.8 5.7 5.8 6.0 6.2 6.3 6.3 6.3 6.1 5.9 5.7 5.7 5.9 5.7 5.7 5.5 5.6 5.7
7.5 7.2 7.3 7.5 7.5 7.4 6.9 6.9 7.1 7.0 7.0 6.8 6.8 7.0 6.9 6.7 6.4 6.3 6.3 6.4 6.5 6.3 6.1 5.9 5.9 6.1 6.1 6.3 6.0 6.1 6.2 6.2 6.2 6.3 6.4 6.1 5.9 5.6 5.9 5.7 5.8 5.7 5.6
Wind_Speed
13 18 17 16 17 17 17 16 16 15 15 15 15 14 14 12 10 10 9 9 9 11 13 15 16 16 17 16 16 17 18 18 16 16 16 15 15 15 14 14 13 16 15
19 20 18 17 17 17 16 15 14 13 14 15 13 12 13 12 11 9 8 8 8 9 11 12 14 14 15 16 16 17 17 16 15 15 15 15 14 14 15 14 13 15 15
18 21 19 17 17 16 15 14 13 13 13 14 12 10 10 10 9 9 8 8 9 10 12 12 12 13 14 15 15 16 16 15 15 15 11 11 13 13 13 15 13 14 14
21 20 19 16 16 15 15 14 13 12 12 12 12 9 8 8 8 7 7 10 10 10 9 12 10 11 14 13 14 14 14 15 14 13 11 10 11 12 12 12 12 13 13
18 18 18 17 16 15 13 13 11 11 11 11 10 8 6 5 6 7 7 8 8 10 9 10 10 11 12 13 12 12 12 13 12 10 9 8 9 11 10 11 12 11 8
17 17 19 17 15 14 13 12 10 10 9 9 8 7 6 6 6 6 8 5 8 8 10 9 12 11 12 10 10 10 10 11 9 8 8 8 6 11 10 9 9 9 10
15 16 17 16 15 13 13 11 10 9 7 7 6 5 5 5 3 4 8 5 5 8 8 9 9 11 11 11 9 8 6 7 6 4 5 5 7 7 8 9 9 9 8
15 16 14 15 15 13 12 12 10 9 7 5 4 4 3 4 3 4 6 5 4 5 6 8 6 8 9 10 9 8 7 5 4 3 4 3 6 4 7 7 7 7 8
16 14 14 15 14 13 11 10 9 8 7 6 4 2 1 2 3 2 2 2 3 4 5 5 7 6 6 7 8 7 5 4 3 2 2 3 5 5 7 7 7 7 6
12 13 14 13 13 12 11 9 8 7 6 6 5 3 2 2 2 1 1 1 2 2 3 4 4 4 5 6 5 5 4 4 3 3 4 4 8 9 8 8 10 9 7
10 11 13 13 12 11 9 8 8 7 5 4 3 3 1 3 3 1 2 3 4 5 4 4 4 4 5 6 6 6 6 6 6 6 6 4 11 13 12 10 11 10 9
14 12 11 12 11 11 9 7 4 4 4 2 1 2 2 3 3 2 3 5 6 5 6 6 6 6 8 6 6 8 9 7 8 8 8 7 11 16 16 14 14 12 11
13 10 11 9 11 10 7 7 5 6 5 3 7 5 3 3 3 4 3 4 2 4 5 4 6 8 7 7 7 8 9 9 9 10 10 10 12 17 18 17 16 16 15
12 11 10 11 9 9 8 6 6 5 6 5 7 7 5 4 3 3 3 3 4 4 5 6 6 7 7 8 9 10 10 10 10 11 11 13 13 16 18 18 17 17 17
12 11 10 9 8 8 7 6 5 7 6 6 6 8 12 6 5 2 3 4 6 6 7 7 7 8 8 9 10 10 11 12 12 11 10 11 15 17 20 21 20 19 19
10 10 9 9 10 9 7 7 6 6 6 6 6 9 11 7 2 3 3 4 7 7 7 7 7 6 6 9 8 10 11 12 12 12 11 10 14 17 20 20 19 21 20
10 8 10 10 11 10 9 9 7 7 6 6 8 10 6 8 6 7 6 3 4 4 5 7 7 8 7 7 7 9 10 12 11 12 12 11 11 16 18 16 19 20 21
8 8 8 8 10 11 8 8 7 7 8 7 8 9 9 9 7 5 4 4 4 3 5 6 5 6 6 6 6 6 7 10 12 13 13 13 11 12 13 19 18 22 22
9 9 9 9 10 10 8 6 6 6 8 9 8 9 9 8 7 6 5 6 5 6 6 6 5 5 5 5 5 6 7 8 9 12 12 13 12 12 12 11 18 21 21
10 9 9 7 8 8 5 5 5 5 6 7 7 7 6 5 6 6 5 6 6 4 5 5 7 3 4 5 6 6 6 7 7 8 9 12 12 12 13 13 11 15 21
10 10 10 8 8 7 5 5 6 6 4 5 8 8 5 5 7 7 6 6 7 6 6 6 6 5 5 3 5 4 5 7 9 7 7 8 9 12 11 11 10 11 11
10 9 8 9 8 9 7 5 3 3 3 4 5 6 6 6 8 8 8 5 6 5 7 7 7 3 3 3 3 4 3 3 5 7 7 8 9 8 9 11 11 11 12
10 11 11 12 11 11 10 5 4 3 3 4 4 4 3 3 5 8 8 7 4 5 6 7 6 6 6 5 6 3 3 1 3 3 5 6 6 6 7 10 11 11 12
9 11 12 11 12 9 9 7 9 7 6 4 3 3 4 5 5 6 8 10 6 4 8 7 5 8 6 8 4 6 6 4 3 2 2 3 5 6 8 7 10 12 13
9 10 10 8 8 7 7 9 6 6 5 5 5 6 6 6 7 7 7 8 9 6 9 11 11 10 7 6 7 6 5 5 5 5 7 2 4 4 4 5 7 10 13
4 7 7 6 7 7 8 6 1 5 6 4 5 6 6 6 6 7 8 8 10 10 11 11 11 10 8 8 6 6 7 6 6 6 6 7 7 5 4 4 5 7 10
Wind_Direction
159 146 137 130 125 121 117 112 111 111 108 103 101 110 113 119 118 111 107 105 105 98 92 91 98 102 102 106 105 101 100 102 101 99 102 102 103 100 89 86 100 95 98
151 148 142 138 132 125 120 118 115 112 107 113 105 103 106 113 111 106 102 102 115 112 106 97 98 105 108 111 115 115 113 111 107 106 108 105 102 96 95 95 94 96 96
151 148 146 142 138 132 126 123 119 115 107 103 98 99 111 107 103 108 108 98 126 111 104 106 105 114 113 116 115 114 115 115 114 112 107 105 106 106 103 103 106 103 99
149 150 148 146 144 140 134 129 125 119 113 107 99 92 84 93 108 100 96 100 106 116 107 118 119 121 120 118 120 123 124 121 114 120 118 111 110 107 104 104 102 100 100
151 152 147 152 151 147 143 136 131 123 116 109 103 96 90 96 105 117 116 115 109 112 117 124 126 126 120 125 130 122 118 116 118 127 115 117 120 117 110 108 115 107 97
152 157 150 156 157 154 151 144 137 128 122 110 103 96 79 104 129 131 136 121 128 114 127 122 131 134 129 124 127 125 111 116 118 118 127 117 117 122 120 115 113 113 113
157 157 161 160 162 162 158 153 149 142 133 121 105 89 71 75 92 125 115 103 104 127 126 126 133 139 130 135 131 127 115 115 108 105 123 130 123 140 134 129 120 124 127
159 162 164 168 169 170 170 164 161 154 145 131 115 92 66 55 83 101 120 120 111 117 130 134 132 139 142 143 146 144 134 139 123 114 144 139 120 162 153 152 141 148 145
164 169 175 174 177 177 181 175 169 170 160 154 142 120 46 17 34 73 108 107 137 129 122 134 147 154 157 157 160 166 179 174 171 112 141 201 174 204 182 176 165 170 171
172 177 181 179 180 186 187 185 183 187 185 168 170 174 225 261 282 250 94 187 190 184 158 151 150 158 180 189 189 194 206 227 243 233 232 233 204 210 211 201 185 187 185
185 190 188 186 186 189 194 198 199 200 183 213 183 198 311 280 275 313 343 284 233 229 205 207 208 212 221 228 227 225 232 237 239 243 251 231 215 210 215 217 200 200 202
192 194 200 195 193 192 198 200 201 201 190 153 281 267 239 260 248 305 290 307 258 235 237 225 235 238 238 240 236 242 240 238 239 242 245 230 222 216 216 221 215 213 211
193 194 205 203 198 199 196 193 197 203 211 153 230 255 266 247 254 262 295 260 271 310 246 242 238 241 246 251 251 247 248 242 243 243 244 230 223 221 219 223 222 216 216
199 201 202 204 202 203 202 202 208 216 223 201 217 249 261 267 254 283 261 240 256 251 252 251 252 255 254 255 250 251 242 241 243 245 243 228 224 223 224 228 230 225 221
207 202 204 199 206 205 215 218 228 230 232 225 201 217 242 264 246 291 280 253 250 249 256 252 250 256 252 254 248 244 246 246 253 247 248 220 225 228 237 239 234 223 221
212 207 201 198 207 211 221 230 240 238 242 247 239 226 231 241 211 220 284 269 254 248 259 259 261 270 255 256 246 247 245 246 244 250 246 245 231 239 240 244 241 225 226
218 212 207 205 205 215 215 231 230 242 235 248 267 270 250 243 204 206 195 245 285 281 271 267 261 250 257 247 251 249 245 246 246 246 248 251 249 240 251 249 243 234 231
218 211 204 208 210 217 220 221 239 255 262 259 268 280 269 253 237 214 224 217 212 257 258 264 259 256 252 239 238 242 242 244 245 247 250 252 247 254 234 238 243 235 233
208 204 206 205 211 217 223 223 244 259 260 269 257 268 274 257 229 220 236 236 238 269 262 265 255 258 260 240 245 246 249 250 248 245 246 247 244 245 248 240 237 232 233
202 208 211 221 220 224 221 226 235 249 255 260 268 265 272 267 235 221 228 244 234 252 257 253 259 261 285 293 297 277 255 250 249 254 251 246 248 247 248 247 244 239 232
201 200 209 217 230 214 214 221 225 239 246 253 256 272 261 253 233 222 239 233 239 254 278 270 270 279 268 260 280 269 252 242 240 239 242 250 251 249 247 249 249 252 246
200 208 219 228 229 225 223 223 234 232 232 263 276 276 266 248 241 231 235 233 242 256 260 255 252 262 269 267 292 312 294 204 229 237 241 245 248 252 247 241 247 243 250
184 182 200 204 212 216 217 208 204 222 248 250 248 277 325 307 243 247 246 242 227 236 259 256 260 265 279 272 247 268 281 305 326 194 228 230 236 247 247 244 246 244 242
178 192 206 192 199 197 203 211 217 229 251 246 262 279 303 311 295 260 250 243 214 228 251 254 247 255 251 275 276 240 253 284 295 291 208 222 230 242 252 245 247 242 238
171 190 205 195 165 161 194 215 229 249 247 260 278 294 305 295 279 268 250 246 242 219 239 245 242 236 235 244 254 253 241 248 246 264 286 236 263 240 257 247 249 244 236
120 210 213 197 158 180 196 227 356 333 313 313 301 305 300 287 280 275 259 246 241 245 240 240 240 247 241 242 244 248 254 259 258 253 263 276 288 282 257 247 240 244 243